ニート彗星

C/2001 Q1 ( NEAT )

English version
Home page
Updated on March 21, 2003

---------------------------------------------------------------------

・ プロフィール

発見日 2001年8月17日
発見光度 18.8等
発見者 Near-Earth-Asteroid Tracking Team (Jet Propulsion Laboratory)

・ 軌道要素

Epoch 2001 Sept. 8.0 TT = JDT 2452160.5
T 2001 Sept. 20.8687 TT                                 MPCM
q   5.833993             (2000.0)            P               Q
z  +0.005825       Peri.  175.4614      +0.7350996      +0.3146778
 +/-0.000000       Node   139.2614      -0.6473809      +0.5888250
e   0.966017       Incl.   66.9497      -0.2013121      -0.7444884
From 74 observations 2001 July 16-2003 Jan. 27, mean residual 0".7.

・ 星図

・ 光度変化

        m1 = 7.0 + 5 logΔ + 10.0 log r

---------------------------------------------------------------------

軌道要素はMPCのEphemerides and Orbital Elementsに掲載されたものです。
星図は StellaNavigator Ver.2.0 for Windows (アストロアーツ 編著 / アスキー出版局刊) で作成したものです。
光度グラフはComet for Windowsで作成したものです。

---------------------------------------------------------------------

Copyright(C) Seiichi Yoshida (comet@aerith.net). All rights reserved.